SCP
0 0 0 0 0 0 0 0 0 0 0 0 0 0 0 0 0 0 0 0 0 0 0 0 0 0 0 0 0 0 0 0 0 0 0 0 0 0 0 0 0 0 0
0 0 0 0 0 0 0 0 0 0 0 0 0 0 0 0 0 0 0 0 0 0 0 0 0 0 0 0 0 0 0 0 0 0 0 0 0 0 0 0 0 0 0
0 0 0 0 0 0 0 0 0 0 0 0 0 0 0 0 0 0 0 0 0 0 0 0 0 0 0 0 0 0 0 0 0 0 0 0 0 0 0 0 0 0 0
0 0 0 0 0 0 0 0 0 0 0 0 0 0 0 0 0 0 0 0 0 0 0 0 0 0 0 0 0 0 0 0 0 0 0 0 0 0 0 0 0 0 0
0 0 0 0 0 0 0 0 0 0 0 0 0 0 0 0 0 0 0 0 0 0 0 0 0 0 0 0 0 0 0 0 0 0 0 0 0 0 0 0 0 0 0
0 0 0 0 0 0 0 0 0 0 0 0 0 0 0 0 0 0 0 0 0 0 0 0 0 0 0 0 0 0 0 0 0 0 0 0 0 0 0 0 0 0 0
0 0 0 0 0 0 0 0 0 0 0 0 0 0 0 0 0 0 0 0 0 0 0 0 0 0 0 0 0 0 0 0 0 0 0 0 0 0 0 0 0 0 0
0 0 0 0 0 0 0 0 0 0 0 0 0 -0 0 0 0 0 0 0 0 0 0 0 0 0 0 0 0 0 0 0 0 0 0 0 0 0 0 0 0 0 0
0 0 0 0 0 0 0 0 0 0 0 0 0 0 0 0 0 0 0 0 0 0 0 0 0 0 0 0 0 0 0 0 0 0 0 0 0 0 0 0 0 0 0
0 0 0 0 0 0 0 0 0 0 0 0 0 0 0 0 0 0 0 0 0 0 0 0 0 0 0 0 0 0 0 0 0 0 0 0 0 0 0 0 0 0 0
0 0 0 0 0 0 0 0 0 0 0 0 0 0 0 0 0 0 0 0 0 0 0 0 0 0 0 0 0 0 0 0 0 0 0 0 0 0 0 0 0 0 0
0 0 0 0 0 0 0 0 0 0 0 0 0 0 0 0 0 0 0 0 0 0 0 0 0 0 0 0 0 0 0 0 0 0 0 0 0 0 0 0 0 0 0
0 0 0 0 0 0 0 0 0 0 0 0 0 0 0 0 0 0 0 0 0 0 0 0 0 0 0 0 0 0 0 0 0 0 0 0 0 0 0 0 0 0 0
0 0 0 0 0 0 0 0 0 0 0 0 0 0 0 0 0 0 0 0 0 0 0 0 0 0 0 0 0 0 0 0 0 0 0 0 0 0 0 0 0 0 0
0 0 0 0 0 0 0 0 0 0 0 0 0 0 0 0 0 0 0 0 0 0 0 0 0 0 0 0 0 0 0 0 0 0 0 0 0 0 0 0 0 0 0
0 0 0 0 0 0 0 0 0 0 0 0 0 0 0 0 0 0 0 0 0 0 0 0 0 0 0 0 0 0 0 0 0 0 0 0 0 0 0 0 0 0 0
0 0 0 0 0 0 0 0 0 0 0 0 0 0 0 0 0 0 0 0 0 0 0 0 0 0 0 0 0 0 0 0 0 0 0 0 0 0 0 0 0 0 0
0 0 0 0 0 0 0 0 0 0 0 0 0 0 0 0 0 0 0 0 0 0 0 0 0 0 0 0 0 0 0 0 0 0 0 0 0 0 0 0 0 0 0
0 0 0 0 0 0 0 0 0 0 0 0 0 0 0 0 0 0 0 0 0 0 0 0 0 0 0 0 0 0 0 0 0 0 0 0 0 0 0 0 0 0 0
0 0 0 0 0 0 0 0 0 0 0 0 0 0 0 0 0 0 0 0 0 0 0 0 0 0 0 0 0 0 0 0 0 0 0 0 0 0 0 0 0 0 0
0 0 0 0 0 0 0 0 0 0 0 0 0 0 0 0 0 0 0 0 0 0 0 0 0 0 0 0 0 0 0 0 0 0 0 0 0 0 0 0 0 0 0
0 0 0 0 0 0 0 0 0 0 0 0 0 0 0 0 0 0 0 0 0 0 0 0 0 0 0 0 0 0 0 0 0 0 0 0 0 0 0 0 0 0 0
0 0 0 0 0 0 0 0 0 0 0 0 0 0 0 0 0 0 0 0 0 0 0 0 0 0 0 0 0 0 0 0 0 0 0 0 0 0 0 0 0 0 0
0 0 0 0 0 0 0 0 0 0 0 0 0 0 0 0 0 0 0 0 0 0 0 0 0 0 0 0 0 0 0 0 0 0 0 0 0 0 0 0 0 0 0
0 0 0 0 0 0 0 0 0 0 0 0 0 0 0 0 0 0 0 0 0 0 0 0 0 0 0 0 0 0 0 0 0 0 0 0 0 0 0 0 0 0 0
0 0 0 0 0 0 0 0 0 0 0 0 0 0 0 0 0 0 0 0 0 0 0 0 0 0 0 0 0 0 0 0 0 0 0 0 0 0 -0 0 0 -0 -0
Wind_Speed_500mb
11 14 17 20 21 25 28 32 36 39 42 46 47 49 50 54 48 46 52 52 52 53 53 51 48 47 48 49 51 55 51 50 53 55 55 50 51 50 50 50 50 51 54
17 20 23 25 26 26 30 36 41 41 43 45 47 48 53 53 52 53 50 50 49 46 42 42 36 36 37 38 39 42 44 46 46 45 43 43 42 45 48 49 51 53 55
23 27 29 31 34 38 34 37 41 42 39 44 47 46 50 53 44 45 44 42 40 38 33 33 30 31 32 32 33 38 44 45 43 43 45 47 48 45 48 52 55 58 59
26 28 30 32 35 36 38 37 41 41 41 42 46 47 45 43 41 40 35 35 30 30 36 33 33 34 37 42 47 50 50 49 51 55 60 60 60 55 56 58 59 61 61
29 29 31 32 31 30 35 34 37 41 41 41 42 40 37 37 32 34 29 30 40 40 40 39 38 41 43 46 49 53 54 55 55 58 59 62 64 65 66 65 64 64 64
25 26 27 25 24 27 30 33 33 35 34 36 37 37 34 30 32 24 29 53 34 46 40 43 44 43 44 47 53 53 57 59 60 61 63 67 69 70 72 71 71 66 67
23 22 21 21 23 25 26 27 30 32 36 39 42 45 34 27 25 25 53 33 47 38 51 45 46 54 58 57 57 57 59 62 65 66 69 72 70 72 74 74 76 72 68
15 14 15 17 18 21 24 26 29 33 34 37 39 25 24 31 16 56 33 47 32 60 46 56 55 55 53 57 56 54 55 58 61 63 67 70 70 70 73 72 70 69 69
10 12 14 16 18 21 25 28 30 31 34 34 34 17 16 15 46 27 56 37 60 50 66 61 57 58 58 56 56 55 54 57 59 60 61 63 64 65 66 68 69 69 67
10 12 15 18 20 23 24 28 31 34 36 38 35 28 27 26 23 34 20 61 51 75 66 57 70 55 55 51 51 54 55 59 64 65 66 70 72 70 70 68 66 67 67
8 11 13 16 20 25 29 33 36 37 38 38 38 42 42 38 17 33 51 46 62 65 51 80 53 62 55 47 48 52 61 60 67 77 81 80 78 77 76 76 67 64 62
9 11 15 21 27 31 35 38 39 38 37 37 38 37 36 33 37 36 53 73 75 56 77 36 60 54 45 59 51 70 77 82 82 79 80 80 80 79 77 77 76 71 61
7 12 19 27 35 40 40 38 37 37 36 36 35 35 36 36 39 40 45 55 75 79 30 47 28 25 47 40 75 85 81 84 84 84 83 81 80 79 80 77 77 72 66
14 23 30 34 36 37 38 35 33 33 33 33 33 34 35 36 38 40 44 54 82 49 45 54 27 26 41 88 90 89 89 87 84 84 83 82 81 81 80 79 77 70 67
23 29 32 34 34 33 31 31 32 33 35 36 37 38 39 40 42 44 43 45 45 58 77 49 41 68 80 91 87 86 86 84 83 83 81 80 78 78 80 79 80 69 66
28 29 28 28 28 28 29 32 33 34 36 38 40 41 42 44 45 47 48 48 47 47 61 71 78 82 86 86 86 89 85 89 83 78 79 77 75 75 76 80 77 75 67
25 26 27 28 29 31 33 34 34 34 35 36 38 39 40 41 42 42 43 45 47 51 67 88 84 86 85 88 87 85 86 82 85 87 80 77 77 77 74 75 76 77 67
26 27 29 31 31 31 30 30 31 32 33 34 35 36 38 40 42 44 45 44 45 46 54 85 84 91 85 85 91 86 79 71 73 88 93 89 80 77 75 72 73 71 69
25 27 28 28 27 27 28 29 30 32 34 34 35 37 39 41 41 41 42 41 41 45 53 67 90 94 85 95 94 93 85 79 80 84 73 86 74 63 64 68 71 70 65
25 25 25 25 24 25 26 28 30 32 31 32 33 35 37 40 42 46 43 41 43 50 55 66 77 84 82 85 77 88 100 88 88 91 79 63 78 60 68 69 65 65 66
24 23 23 24 25 26 26 30 31 30 29 30 31 34 36 40 46 51 49 49 51 56 63 65 74 84 82 85 82 92 92 98 103 83 71 74 63 87 78 69 68 63 58
22 23 25 26 27 28 30 30 30 30 30 32 33 37 43 47 52 56 55 53 57 60 60 64 75 78 85 88 92 91 95 102 77 78 75 102 86 80 82 68 63 61 60
24 25 27 28 30 30 30 30 30 30 30 33 39 45 47 48 55 58 54 60 59 51 50 59 67 71 87 89 95 100 98 96 104 106 95 97 75 67 62 65 60 58 58
26 28 30 30 30 30 32 32 32 30 31 36 40 46 48 53 56 56 68 68 66 63 65 56 58 73 81 81 80 82 82 86 91 88 67 73 53 74 65 50 52 54 51
30 30 30 29 29 29 32 34 34 33 34 38 43 49 54 58 54 63 71 74 78 77 73 62 73 75 69 66 60 65 68 73 75 79 66 58 56 44 48 54 39 36 38
31 30 28 28 27 28 31 34 37 38 39 43 49 50 56 60 63 67 69 73 81 79 79 86 81 73 63 54 50 49 54 54 57 56 31 50 50 49 38 30 39 53 54
Wind_Direction_500mb
310 309 312 317 318 316 317 321 322 321 321 321 320 321 323 320 323 320 319 317 317 316 314 313 304 298 300 300 296 297 299 305 306 304 304 303 300 297 294 294 293 289 289
307 310 314 317 315 318 316 313 312 314 319 315 314 314 314 314 316 316 314 316 317 321 325 325 320 314 315 314 311 309 309 310 311 309 308 308 304 300 297 295 293 291 289
306 310 313 312 308 314 316 314 310 308 309 306 307 310 310 312 316 312 314 316 320 327 335 333 329 321 321 321 318 313 309 310 311 311 305 304 304 302 299 298 298 294 292
306 309 311 310 309 306 309 314 311 311 311 309 307 311 315 318 319 319 320 326 333 333 330 328 324 318 315 315 315 316 313 310 307 305 304 307 306 304 300 300 300 300 297
307 309 309 310 310 307 310 315 311 311 314 317 321 323 325 323 325 322 321 334 329 331 332 328 327 319 312 311 312 311 310 311 308 307 306 306 307 307 305 306 303 301 299
311 315 316 317 315 315 318 320 323 326 330 332 331 331 332 330 330 333 330 325 331 329 328 324 324 324 319 314 311 308 305 305 305 304 302 302 303 303 303 304 304 305 302
315 319 322 326 332 335 337 342 341 343 344 346 345 339 340 334 338 328 323 329 323 326 322 323 322 319 316 314 313 313 312 309 308 305 303 302 303 302 302 302 303 302 300
322 330 336 342 349 351 352 353 351 351 352 351 354 346 334 337 314 325 327 323 324 322 322 321 323 320 319 318 316 314 311 309 307 303 301 301 302 302 301 301 301 301 299
349 353 358 357 357 357 355 355 355 353 351 349 351 348 333 310 316 323 319 316 318 317 320 321 325 327 324 320 319 315 311 309 307 305 305 304 303 302 300 299 298 297 295
4 2 2 1 4 7 3 356 351 346 343 339 342 331 327 314 318 317 305 315 317 320 323 322 329 330 326 323 320 315 316 316 313 310 309 308 306 303 300 296 296 295 293
12 12 16 16 6 357 349 343 338 335 334 332 331 329 326 324 310 310 310 309 312 320 320 321 327 334 330 330 325 315 316 314 310 308 307 306 305 304 303 299 295 293 290
40 25 11 358 348 340 336 335 334 334 335 334 332 329 327 329 319 317 310 316 318 325 319 324 328 328 327 323 324 319 317 311 310 307 304 302 301 299 298 297 294 291 284
31 357 349 342 338 336 336 337 337 337 336 336 337 336 333 329 325 321 316 314 314 320 327 325 325 322 316 316 314 313 312 310 310 310 308 304 301 298 296 295 293 291 282
352 344 340 336 336 338 337 339 343 343 344 345 343 340 340 335 330 328 325 325 324 317 319 317 325 309 300 308 318 320 317 315 314 311 309 307 302 298 295 292 290 289 282
339 334 336 339 340 340 340 341 347 348 348 346 344 343 342 339 336 334 330 328 322 316 321 318 317 310 314 319 322 323 320 317 315 312 309 306 301 296 293 290 286 283 276
333 334 336 338 341 341 341 345 346 346 345 343 343 341 338 335 332 329 327 323 319 309 301 310 314 316 320 323 324 324 323 321 318 314 311 308 303 298 292 288 284 280 271
336 336 338 341 342 343 342 343 344 343 342 340 337 335 333 331 330 329 328 325 320 315 308 311 315 320 321 322 322 323 323 322 320 320 316 311 308 303 297 291 285 279 270
333 333 338 339 338 339 341 343 342 339 339 338 337 336 339 341 340 338 335 331 324 320 314 313 320 324 324 324 324 322 322 316 317 320 319 317 314 305 296 291 286 280 273
328 331 330 327 333 339 342 339 339 342 344 343 345 347 344 344 345 344 341 333 328 323 321 317 318 325 322 325 324 323 319 316 315 317 314 317 318 313 304 295 287 280 269
320 319 320 327 330 333 335 338 342 346 345 346 345 344 348 350 349 346 341 336 330 323 321 316 315 317 319 322 319 320 318 317 315 318 317 318 316 310 307 300 295 289 277
312 314 318 321 325 328 333 340 343 340 342 342 343 345 345 343 343 341 339 333 329 325 321 320 317 317 318 320 319 317 314 312 310 313 313 314 306 310 312 309 299 289 282
304 312 316 316 321 325 332 333 335 340 340 342 339 340 341 340 338 336 332 329 326 324 321 319 316 315 315 316 316 314 312 314 308 307 307 304 304 299 307 312 306 295 282
308 310 312 315 316 318 321 327 336 338 337 332 334 337 337 336 335 334 330 325 324 322 317 316 315 316 314 314 312 309 308 304 302 301 307 303 304 297 305 310 306 298 286
306 307 307 306 307 312 321 329 334 331 326 328 333 333 330 334 334 333 327 326 326 326 326 323 315 308 311 312 310 308 309 307 303 305 309 298 300 302 303 304 309 304 295
300 299 299 302 306 314 322 328 325 323 326 327 329 330 328 331 333 331 330 328 329 329 328 321 319 319 317 316 317 315 312 313 311 310 316 296 306 311 308 313 313 307 323
295 296 298 301 307 317 321 319 324 329 327 326 328 326 327 329 330 333 332 330 327 330 326 325 324 324 328 326 323 323 322 317 315 320 317 317 309 320 320 307 306 309 314
Wind_Speed_850mb
11 14 17 20 21 25 28 32 36 39 42 46 47 49 50 54 48 46 52 52 52 53 53 51 48 47 48 49 51 55 51 50 53 55 55 50 51 50 50 50 50 51 54
17 20 23 25 26 26 30 36 41 41 43 45 47 48 53 53 52 53 50 50 49 46 42 42 36 36 37 38 39 42 44 46 46 45 43 43 42 45 48 49 51 53 55
23 27 29 31 34 38 34 37 41 42 39 44 47 46 50 53 44 45 44 42 40 38 33 33 30 31 32 32 33 38 44 45 43 43 45 47 48 45 48 52 55 58 59
26 28 30 32 35 36 38 37 41 41 41 42 46 47 45 43 41 40 35 35 30 30 36 33 33 34 37 42 47 50 50 49 51 55 60 60 60 55 56 58 59 61 61
29 29 31 32 31 30 35 34 37 41 41 41 42 40 37 37 32 34 29 30 40 40 40 39 38 41 43 46 49 53 54 55 55 58 59 62 64 65 66 65 64 64 64
25 26 27 25 24 27 30 33 33 35 34 36 37 37 34 30 32 24 29 53 34 46 40 43 44 43 44 47 53 53 57 59 60 61 63 67 69 70 72 71 71 66 67
23 22 21 21 23 25 26 27 30 32 36 39 42 45 34 27 25 25 53 33 47 38 51 45 46 54 58 57 57 57 59 62 65 66 69 72 70 72 74 74 76 72 68
15 14 15 17 18 21 24 26 29 33 34 37 39 25 24 31 16 56 33 47 32 60 46 56 55 55 53 57 56 54 55 58 61 63 67 70 70 70 73 72 70 69 69
10 12 14 16 18 21 25 28 30 31 34 34 34 17 16 15 46 27 56 37 60 50 66 61 57 58 58 56 56 55 54 57 59 60 61 63 64 65 66 68 69 69 67
10 12 15 18 20 23 24 28 31 34 36 38 35 28 27 26 23 34 20 61 51 75 66 57 70 55 55 51 51 54 55 59 64 65 66 70 72 70 70 68 66 67 67
8 11 13 16 20 25 29 33 36 37 38 38 38 42 42 38 17 33 51 46 62 65 51 80 53 62 55 47 48 52 61 60 67 77 81 80 78 77 76 76 67 64 62
9 11 15 21 27 31 35 38 39 38 37 37 38 37 36 33 37 36 53 73 75 56 77 36 60 54 45 59 51 70 77 82 82 79 80 80 80 79 77 77 76 71 61
7 12 19 27 35 40 40 38 37 37 36 36 35 35 36 36 39 40 45 55 75 79 30 47 28 25 47 40 75 85 81 84 84 84 83 81 80 79 80 77 77 72 66
14 23 30 34 36 37 38 35 33 33 33 33 33 34 35 36 38 40 44 54 82 49 45 54 27 26 41 88 90 89 89 87 84 84 83 82 81 81 80 79 77 70 67
23 29 32 34 34 33 31 31 32 33 35 36 37 38 39 40 42 44 43 45 45 58 77 49 41 68 80 91 87 86 86 84 83 83 81 80 78 78 80 79 80 69 66
28 29 28 28 28 28 29 32 33 34 36 38 40 41 42 44 45 47 48 48 47 47 61 71 78 82 86 86 86 89 85 89 83 78 79 77 75 75 76 80 77 75 67
25 26 27 28 29 31 33 34 34 34 35 36 38 39 40 41 42 42 43 45 47 51 67 88 84 86 85 88 87 85 86 82 85 87 80 77 77 77 74 75 76 77 67
26 27 29 31 31 31 30 30 31 32 33 34 35 36 38 40 42 44 45 44 45 46 54 85 84 91 85 85 91 86 79 71 73 88 93 89 80 77 75 72 73 71 69
25 27 28 28 27 27 28 29 30 32 34 34 35 37 39 41 41 41 42 41 41 45 53 67 90 94 85 95 94 93 85 79 80 84 73 86 74 63 64 68 71 70 65
25 25 25 25 24 25 26 28 30 32 31 32 33 35 37 40 42 46 43 41 43 50 55 66 77 84 82 85 77 88 100 88 88 91 79 63 78 60 68 69 65 65 66
24 23 23 24 25 26 26 30 31 30 29 30 31 34 36 40 46 51 49 49 51 56 63 65 74 84 82 85 82 92 92 98 103 83 71 74 63 87 78 69 68 63 58
22 23 25 26 27 28 30 30 30 30 30 32 33 37 43 47 52 56 55 53 57 60 60 64 75 78 85 88 92 91 95 102 77 78 75 102 86 80 82 68 63 61 60
24 25 27 28 30 30 30 30 30 30 30 33 39 45 47 48 55 58 54 60 59 51 50 59 67 71 87 89 95 100 98 96 104 106 95 97 75 67 62 65 60 58 58
26 28 30 30 30 30 32 32 32 30 31 36 40 46 48 53 56 56 68 68 66 63 65 56 58 73 81 81 80 82 82 86 91 88 67 73 53 74 65 50 52 54 51
30 30 30 29 29 29 32 34 34 33 34 38 43 49 54 58 54 63 71 74 78 77 73 62 73 75 69 66 60 65 68 73 75 79 66 58 56 44 48 54 39 36 38
31 30 28 28 27 28 31 34 37 38 39 43 49 50 56 60 63 67 69 73 81 79 79 86 81 73 63 54 50 49 54 54 57 56 31 50 50 49 38 30 39 53 54
Wind_Direction_850mb
310 309 312 317 318 316 317 321 322 321 321 321 320 321 323 320 323 320 319 317 317 316 314 313 304 298 300 300 296 297 299 305 306 304 304 303 300 297 294 294 293 289 289
307 310 314 317 315 318 316 313 312 314 319 315 314 314 314 314 316 316 314 316 317 321 325 325 320 314 315 314 311 309 309 310 311 309 308 308 304 300 297 295 293 291 289
306 310 313 312 308 314 316 314 310 308 309 306 307 310 310 312 316 312 314 316 320 327 335 333 329 321 321 321 318 313 309 310 311 311 305 304 304 302 299 298 298 294 292
306 309 311 310 309 306 309 314 311 311 311 309 307 311 315 318 319 319 320 326 333 333 330 328 324 318 315 315 315 316 313 310 307 305 304 307 306 304 300 300 300 300 297
307 309 309 310 310 307 310 315 311 311 314 317 321 323 325 323 325 322 321 334 329 331 332 328 327 319 312 311 312 311 310 311 308 307 306 306 307 307 305 306 303 301 299
311 315 316 317 315 315 318 320 323 326 330 332 331 331 332 330 330 333 330 325 331 329 328 324 324 324 319 314 311 308 305 305 305 304 302 302 303 303 303 304 304 305 302
315 319 322 326 332 335 337 342 341 343 344 346 345 339 340 334 338 328 323 329 323 326 322 323 322 319 316 314 313 313 312 309 308 305 303 302 303 302 302 302 303 302 300
322 330 336 342 349 351 352 353 351 351 352 351 354 346 334 337 314 325 327 323 324 322 322 321 323 320 319 318 316 314 311 309 307 303 301 301 302 302 301 301 301 301 299
349 353 358 357 357 357 355 355 355 353 351 349 351 348 333 310 316 323 319 316 318 317 320 321 325 327 324 320 319 315 311 309 307 305 305 304 303 302 300 299 298 297 295
4 2 2 1 4 7 3 356 351 346 343 339 342 331 327 314 318 317 305 315 317 320 323 322 329 330 326 323 320 315 316 316 313 310 309 308 306 303 300 296 296 295 293
12 12 16 16 6 357 349 343 338 335 334 332 331 329 326 324 310 310 310 309 312 320 320 321 327 334 330 330 325 315 316 314 310 308 307 306 305 304 303 299 295 293 290
40 25 11 358 348 340 336 335 334 334 335 334 332 329 327 329 319 317 310 316 318 325 319 324 328 328 327 323 324 319 317 311 310 307 304 302 301 299 298 297 294 291 284
31 357 349 342 338 336 336 337 337 337 336 336 337 336 333 329 325 321 316 314 314 320 327 325 325 322 316 316 314 313 312 310 310 310 308 304 301 298 296 295 293 291 282
352 344 340 336 336 338 337 339 343 343 344 345 343 340 340 335 330 328 325 325 324 317 319 317 325 309 300 308 318 320 317 315 314 311 309 307 302 298 295 292 290 289 282
339 334 336 339 340 340 340 341 347 348 348 346 344 343 342 339 336 334 330 328 322 316 321 318 317 310 314 319 322 323 320 317 315 312 309 306 301 296 293 290 286 283 276
333 334 336 338 341 341 341 345 346 346 345 343 343 341 338 335 332 329 327 323 319 309 301 310 314 316 320 323 324 324 323 321 318 314 311 308 303 298 292 288 284 280 271
336 336 338 341 342 343 342 343 344 343 342 340 337 335 333 331 330 329 328 325 320 315 308 311 315 320 321 322 322 323 323 322 320 320 316 311 308 303 297 291 285 279 270
333 333 338 339 338 339 341 343 342 339 339 338 337 336 339 341 340 338 335 331 324 320 314 313 320 324 324 324 324 322 322 316 317 320 319 317 314 305 296 291 286 280 273
328 331 330 327 333 339 342 339 339 342 344 343 345 347 344 344 345 344 341 333 328 323 321 317 318 325 322 325 324 323 319 316 315 317 314 317 318 313 304 295 287 280 269
320 319 320 327 330 333 335 338 342 346 345 346 345 344 348 350 349 346 341 336 330 323 321 316 315 317 319 322 319 320 318 317 315 318 317 318 316 310 307 300 295 289 277
312 314 318 321 325 328 333 340 343 340 342 342 343 345 345 343 343 341 339 333 329 325 321 320 317 317 318 320 319 317 314 312 310 313 313 314 306 310 312 309 299 289 282
304 312 316 316 321 325 332 333 335 340 340 342 339 340 341 340 338 336 332 329 326 324 321 319 316 315 315 316 316 314 312 314 308 307 307 304 304 299 307 312 306 295 282
308 310 312 315 316 318 321 327 336 338 337 332 334 337 337 336 335 334 330 325 324 322 317 316 315 316 314 314 312 309 308 304 302 301 307 303 304 297 305 310 306 298 286
306 307 307 306 307 312 321 329 334 331 326 328 333 333 330 334 334 333 327 326 326 326 326 323 315 308 311 312 310 308 309 307 303 305 309 298 300 302 303 304 309 304 295
300 299 299 302 306 314 322 328 325 323 326 327 329 330 328 331 333 331 330 328 329 329 328 321 319 319 317 316 317 315 312 313 311 310 316 296 306 311 308 313 313 307 323
295 296 298 301 307 317 321 319 324 329 327 326 328 326 327 329 330 333 332 330 327 330 326 325 324 324 328 326 323 323 322 317 315 320 317 317 309 320 320 307 306 309 314